When you browse on this site, cookies collect data to enhance your experience and personalize the content and advertising you see.
Visit our Privacy Policy to learn more. By continuing to use the site, you agree to this use of cookies and data.
  • In Denmark
  • List of Countries
  • For 7 days
  • Water Temperature
  • Weather Map
  • Weather Widgets
  • user-avatar
    Login

    Hourly Weather Salzburg

    Today, 19 January, Sunday

    Time Temperature Precipitation Wind Pressure Humidity
    00:00 -8°C° 0 mm 0 mps 627 mmHg 91%
    01:00 -9°C° 0 mm 0 mps 627 mmHg 90%
    02:00 -9°C° 0.2 mm 0 mps 627 mmHg 91%
    03:00 -9°C° 0.2 mm 1 mps 627 mmHg 93%
    04:00 -9°C° 0.2 mm 1 mps 627 mmHg 95%
    05:00 -8°C° 0.6 mm 1 mps 628 mmHg 95%
    06:00 -8°C° 0.6 mm 1 mps 628 mmHg 96%
    07:00 -8°C° 0.6 mm 1 mps 628 mmHg 96%
    08:00 -8°C° 0.4 mm 1 mps 629 mmHg 95%
    09:00 -7°C° 0.4 mm 1 mps 629 mmHg 94%
    10:00 -7°C° 0.4 mm 1 mps 630 mmHg 93%
    11:00 -6°C° 0.2 mm 1 mps 630 mmHg 91%
    12:00 -6°C° 0.2 mm 1 mps 630 mmHg 88%
    13:00 -6°C° 0.2 mm 2 mps 631 mmHg 86%
    14:00 -6°C° 0.1 mm 1 mps 631 mmHg 88%
    15:00 -7°C° 0.1 mm 1 mps 631 mmHg 90%
    16:00 -7°C° 0.1 mm 1 mps 631 mmHg 92%
    17:00 -8°C° 0.1 mm 1 mps 631 mmHg 93%
    18:00 -8°C° 0.1 mm 1 mps 632 mmHg 94%
    19:00 -9°C° 0.1 mm 1 mps 632 mmHg 95%
    20:00 -10°C° 0 mm 1 mps 633 mmHg 94%
    21:00 -10°C° 0 mm 0 mps 633 mmHg 94%
    22:00 -11°C° 0 mm 0 mps 633 mmHg 94%
    23:00 -11°C° 0 mm 0 mps 633 mmHg 93%

    Tomorrow, 20 January, Monday

    Time Temperature Precipitation Wind Pressure Humidity
    00:00 -12°C° 0 mm 1 mps 633 mmHg 92%
    01:00 -12°C° 0 mm 1 mps 633 mmHg 92%
    02:00 -12°C° 0 mm 1 mps 633 mmHg 92%
    03:00 -12°C° 0 mm 1 mps 633 mmHg 92%
    04:00 -12°C° 0 mm 1 mps 633 mmHg 92%
    05:00 -12°C° 0 mm 1 mps 634 mmHg 92%
    06:00 -12°C° 0 mm 1 mps 634 mmHg 91%
    07:00 -12°C° 0 mm 1 mps 635 mmHg 91%
    08:00 -11°C° 0 mm 1 mps 635 mmHg 89%
    09:00 -10°C° 0 mm 0 mps 636 mmHg 88%
    10:00 -9°C° 0 mm 0 mps 636 mmHg 86%
    11:00 -8°C° 0 mm 0 mps 637 mmHg 83%
    12:00 -7°C° 0 mm 1 mps 637 mmHg 81%
    13:00 -4°C° 0 mm 1 mps 637 mmHg 78%
    14:00 -6°C° 0 mm 1 mps 637 mmHg 80%
    15:00 -6°C° 0 mm 1 mps 637 mmHg 83%
    16:00 -7°C° 0 mm 1 mps 636 mmHg 85%
    17:00 -8°C° 0 mm 1 mps 636 mmHg 83%
    18:00 -10°C° 0 mm 2 mps 636 mmHg 81%
    19:00 -10°C° 0 mm 2 mps 636 mmHg 79%
    20:00 -10°C° 0 mm 2 mps 636 mmHg 76%
    21:00 -10°C° 0 mm 2 mps 636 mmHg 73%
    22:00 -10°C° 0 mm 2 mps 637 mmHg 70%
    23:00 -10°C° 0 mm 2 mps 636 mmHg 67%

    Day after tomorrow, 21 January, Tuesday

    Time Temperature Precipitation Wind Pressure Humidity
    00:00 -10°C° 0 mm 2 mps 636 mmHg 65%
    01:00 -9°C° 0 mm 2 mps 636 mmHg 63%
    02:00 -9°C° 0 mm 2 mps 636 mmHg 61%
    03:00 -8°C° 0 mm 2 mps 636 mmHg 60%
    04:00 -8°C° 0 mm 2 mps 636 mmHg 58%
    05:00 -8°C° 0 mm 2 mps 636 mmHg 57%
    06:00 -7°C° 0 mm 2 mps 636 mmHg 56%
    07:00 -7°C° 0 mm 2 mps 636 mmHg 55%
    08:00 -6°C° 0 mm 2 mps 637 mmHg 56%
    09:00 -4°C° 0 mm 2 mps 637 mmHg 58%
    10:00 -1°C° 0 mm 1 mps 637 mmHg 59%
    11:00 0°C° 0 mm 1 mps 637 mmHg 65%
    12:00 +1°C° 0 mm 1 mps 637 mmHg 71%
    13:00 +2°C° 0 mm 1 mps 637 mmHg 77%
    14:00 +1°C° 0 mm 1 mps 637 mmHg 74%
    15:00 0°C° 0 mm 1 mps 636 mmHg 70%
    16:00 0°C° 0 mm 1 mps 636 mmHg 67%
    17:00 -1°C° 0 mm 1 mps 635 mmHg 65%
    18:00 -2°C° 0 mm 1 mps 635 mmHg 64%
    19:00 -3°C° 0 mm 1 mps 635 mmHg 62%
    20:00 -3°C° 0 mm 1 mps 634 mmHg 61%
    21:00 -3°C° 0 mm 1 mps 634 mmHg 59%
    22:00 -3°C° 0 mm 1 mps 634 mmHg 58%
    23:00 -3°C° 0 mm 1 mps 634 mmHg 57%

    22 January, Wednesday

    Time Temperature Precipitation Wind Pressure Humidity
    00:00 -3°C° 0 mm 1 mps 634 mmHg 57%
    01:00 -3°C° 0 mm 1 mps 634 mmHg 56%
    02:00 -3°C° 0 mm 1 mps 634 mmHg 56%
    03:00 -3°C° 0 mm 1 mps 633 mmHg 57%
    04:00 -3°C° 0 mm 1 mps 633 mmHg 57%
    05:00 -3°C° 0 mm 1 mps 633 mmHg 57%
    06:00 -3°C° 0 mm 1 mps 633 mmHg 57%
    07:00 -3°C° 0 mm 1 mps 632 mmHg 57%
    08:00 -2°C° 0 mm 1 mps 633 mmHg 61%
    09:00 -1°C° 0 mm 0 mps 633 mmHg 66%
    10:00 0°C° 0 mm 0 mps 634 mmHg 70%
    11:00 0°C° 0 mm 0 mps 634 mmHg 75%
    12:00 0°C° 0 mm 0 mps 633 mmHg 79%
    13:00 +2°C° 0 mm 1 mps 633 mmHg 84%
    14:00 0°C° 0 mm 0 mps 633 mmHg 81%
    15:00 0°C° 0 mm 0 mps 632 mmHg 78%
    16:00 -1°C° 0 mm 0 mps 632 mmHg 75%
    17:00 -1°C° 0 mm 1 mps 632 mmHg 72%
    18:00 -2°C° 0 mm 1 mps 631 mmHg 70%
    19:00 -3°C° 0 mm 1 mps 631 mmHg 68%
    20:00 -3°C° 0 mm 1 mps 631 mmHg 67%
    21:00 -4°C° 0 mm 1 mps 631 mmHg 66%
    22:00 -5°C° 0 mm 0 mps 631 mmHg 65%
    23:00 -4°C° 0 mm 1 mps 631 mmHg 64%

    23 January, Thursday

    Time Temperature Precipitation Wind Pressure Humidity
    00:00 -4°C° 0 mm 1 mps 631 mmHg 62%
    01:00 -4°C° 0 mm 1 mps 631 mmHg 61%
    02:00 -4°C° 0 mm 1 mps 631 mmHg 60%
    03:00 -4°C° 0 mm 1 mps 631 mmHg 58%
    04:00 -4°C° 0 mm 1 mps 630 mmHg 57%
    05:00 -4°C° 0 mm 1 mps 630 mmHg 56%
    06:00 -4°C° 0 mm 1 mps 630 mmHg 54%
    07:00 -4°C° 0 mm 1 mps 630 mmHg 53%
    08:00 -2°C° 0 mm 1 mps 631 mmHg 56%
    09:00 -1°C° 0 mm 1 mps 631 mmHg 59%
    10:00 0°C° 0 mm 1 mps 631 mmHg 62%
    11:00 +1°C° 0 mm 1 mps 631 mmHg 67%
    12:00 +2°C° 0 mm 1 mps 631 mmHg 72%
    13:00 +2°C° 0 mm 1 mps 631 mmHg 77%
    14:00 +2°C° 0 mm 1 mps 631 mmHg 76%
    15:00 +1°C° 0 mm 1 mps 631 mmHg 75%
    16:00 0°C° 0 mm 1 mps 630 mmHg 74%
    17:00 0°C° 0 mm 1 mps 630 mmHg 72%
    18:00 -1°C° 0 mm 1 mps 630 mmHg 71%
    19:00 -4°C° 0 mm 2 mps 629 mmHg 70%
    20:00 -5°C° 0 mm 2 mps 629 mmHg 68%
    21:00 -5°C° 0 mm 2 mps 629 mmHg 66%
    22:00 -5°C° 0 mm 2 mps 630 mmHg 65%
    23:00 -5°C° 0 mm 2 mps 629 mmHg 63%

    24 January, Friday

    Time Temperature Precipitation Wind Pressure Humidity
    00:00 -3°C° 0 mm 1 mps 629 mmHg 61%
    01:00 -3°C° 0 mm 1 mps 629 mmHg 59%
    02:00 -3°C° 0 mm 1 mps 629 mmHg 58%
    03:00 -3°C° 0 mm 1 mps 628 mmHg 56%
    04:00 -3°C° 0 mm 1 mps 628 mmHg 55%
    05:00 -3°C° 0 mm 1 mps 628 mmHg 55%
    06:00 -3°C° 0 mm 1 mps 628 mmHg 55%
    07:00 -3°C° 0 mm 1 mps 628 mmHg 54%
    08:00 -2°C° 0 mm 1 mps 628 mmHg 57%
    09:00 -1°C° 0 mm 1 mps 629 mmHg 59%
    10:00 +1°C° 0 mm 1 mps 629 mmHg 62%
    11:00 +1°C° 0 mm 1 mps 629 mmHg 67%
    12:00 +2°C° 0 mm 1 mps 629 mmHg 72%
    13:00 +3°C° 0 mm 1 mps 629 mmHg 77%
    14:00 +2°C° 0 mm 1 mps 628 mmHg 74%
    15:00 +1°C° 0 mm 2 mps 628 mmHg 72%
    16:00 -1°C° 0 mm 2 mps 627 mmHg 69%
    17:00 -1°C° 0 mm 2 mps 627 mmHg 68%
    18:00 -2°C° 0 mm 2 mps 626 mmHg 66%
    19:00 -4°C° 0 mm 3 mps 626 mmHg 65%
    20:00 -4°C° 0 mm 3 mps 626 mmHg 65%
    21:00 -4°C° 0 mm 3 mps 626 mmHg 65%
    22:00 -5°C° 0 mm 3 mps 626 mmHg 65%
    23:00 -5°C° 0 mm 3 mps 625 mmHg 66%
    Show more